Content
SEND FEEDBACK

Daily
Averages
Monthly
Summary
United States of America

MILAN, MICHIGAN


Home > North America > United States > Michigan
Elevation: 660 feet     Latitude: 42 05N     Longitude: 083 35W

WEATHER
 
SELECT A DAY
Number of Records: 202,607;   Date Range: 1/1/95 - 7/29/14
 
SHARE

PRINT THIS DATA

[ ← Previous Day ]
WEATHER ALMANAC - MAY 25, 2013
[ Next Day → ]
[ °C ]   °F
Weather ElementAverageHighLow
Temperature54.2 °F68 °F (3:53 pm)37.9 °F (5:53 am)
Dewpoint35.1 °F39 °F (7:53 am)32 °F (10:53 am)
Humidity53 %86 % (6:53 am)30 % (2:53 pm)
Barometer30.34 in30.41 in (9:53 am)30.29 in (5:53 pm)
Wind Speed4.1 mph10.4 mph (4:53 pm)
Weather ElementAverage
Visibility9.7 mi
Wind DirectionESE (99.6 °)

Weather ElementTotal
Precipitation---
Heating Degree Days12.1 (Base 65)
Growing Degree Days3 (Base 50)
Averaged from 23 records on May 25, 2013
WEATHER CONDITIONS BREAKOUT
WIND DIRECTION BREAKOUT
WEATHER BY HOUR - MAY 25, 2013
[ °C ]   °F
Local TimeTemperatureDewpointHumidityBarometerVisibilityWind DirectionWind SpeedGust SpeedPrecipitationEventsConditions
1:53 AM41.0 °F36.0 °F82 %30.35 in10.0 miNE (50°)3.5 mphClear
2:53 AM41.0 °F35.1 °F79 %30.35 in10.0 miCalmClear
3:53 AM39.0 °F34.0 °F82 %30.36 in10.0 miCalmClear
4:53 AM39.0 °F33.1 °F79 %30.35 in10.0 miCalmClear
5:53 AM37.9 °F33.1 °F83 %30.35 in5.0 miCalmHaze
6:53 AM37.9 °F34.0 °F86 %30.35 in9.0 miCalmClear
7:53 AM46.0 °F39.0 °F76 %30.37 in10.0 miCalmClear
8:53 AM50.0 °F36.0 °F59 %30.40 in10.0 miCalmOvercast
9:53 AM55.0 °F33.1 °F43 %30.41 in10.0 miVariable3.5 mphClear
10:53 AM57.9 °F32.0 °F37 %30.39 in10.0 miVariable5.8 mphClear
11:53 AM62.1 °F33.1 °F34 %30.38 in10.0 miNorth (360°)9.2 mphClear
12:53 PM64.0 °F34.0 °F33 %30.38 in10.0 miVariable5.8 mphClear
1:53 PM64.9 °F34.0 °F32 %30.36 in10.0 miVariable4.6 mphClear
2:53 PM66.0 °F34.0 °F30 %30.34 in10.0 miWSW (250°)4.6 mphClear
3:53 PM68.0 °F37.0 °F32 %30.32 in10.0 miNorth (360°)6.9 mphClear
4:53 PM66.9 °F34.0 °F30 %30.31 in10.0 miNorth (350°)10.4 mphClear
5:53 PM66.9 °F34.0 °F30 %30.29 in10.0 miNorth (350°)6.9 mphClear
6:53 PM66.9 °F36.0 °F32 %30.29 in10.0 miNW (320°)6.9 mphClear
7:53 PM64.0 °F36.0 °F35 %30.29 in10.0 miNNE (30°)9.2 mphPartly Cloudy
8:53 PM57.9 °F37.0 °F46 %30.29 in10.0 miENE (70°)8.1 mphClear
9:53 PM53.1 °F37.9 °F57 %30.30 in10.0 miESE (110°)5.8 mphClear
10:53 PM53.1 °F37.9 °F57 %30.31 in10.0 miCalmClear
11:53 PM48.9 °F37.9 °F66 %30.33 in10.0 miNE (40°)3.5 mphClear
Hourly data recorded from KYIP, located miles away from Milan, Michigan







STORIES FROM OUR PARTNERS